Showing default

SECOR 7 (EGRS 7), 2411

Orbit data source: Space-Track

SECOR 7 (EGRS 7), 2411 is an American payload satellite in LEO that was launched on Fri, 19 Aug 1966 UTC via an ATLAS SLV-3 AGENA D launch vehicle from the Air Force Western Test Range (AFWTR). Payload-class satellites include a variety of spacecraft equipped with specific instruments for various scientific and technological missions. These include communications satellites like Starlink; space stations such as the ISS; scientific satellites like the Hubble; Earth observation satellites from companies like Planet Labs, Umbra, and HawkEye 360; GPS; miniature CubeSats for education and research; and military/defense satellites.

Loading next visibility...
Identifier
2411, 1966-077B
Orbit
LEO
Last TLE update
18 hours ago
Origin
Manufacturer
ITT
Mission
Defense Geodetic
Bus & Motor
SECOR, Unknown motor
Mass
18 kg wet, 18 kg dry
Launch date (UTC)
1966-08-19 (59 years ago)
Launch vehicle
ATLAS SLV-3 AGENA D
Launch site
Air Force Western Test Range (AFWTR)
Object type
Payload
Rocket body
Debris
Shape & HBR
Box, 0.36 m
Radar Cross Section
0.095 m², Medium (>0.1 m² and < 1m²)

Expand to show TLE details & history

TLE from 18 hours ago
0 SECOR 7 (EGRS 7)
1 02411U 66077B   25186.20396483 -.00000023  00000-0 -12111-1 0  9995
2 02411  90.3380 273.3878 0013027  51.8303 308.3720  8.59615438847566
Epoch: 2025-07-05T04:53Z
TLE epoch observation values (Epoch: 2025-07-05T04:53:42.561Z)
Latitude
-0.00005°
Longitude
-83.48491°
Altitude
3,682.122 km
Speed
6.298 km/s
True Right ascension
18h 13m 33s
True Declination
0° 00' 00"
Sunlit
Object was in full shadow at epoch
Visualization orbit readout
Latitude
-23.15643°
Longitude
96.38018°
Altitude
3,707.707 km
Speed
6.283 km/s
Apparent Right ascension
04h 10m 15s
Apparent Declination
-40° 58' 29"
Sunlit
Object is in daylight
Visualization observer readout
Local Sidereal Time
11:09:49
Azimuth
242.585° WSW
Elevation
-34.719°
Doppler factor
1
Orbital elements
Apogee altitude
3,698.996 km
Perigee altitude
3,672.775 km
Semi-major axis
10,064.023 km
Eccentricity
0.0013
Inclination
90.338°
RAAN
273.3878°
Arg. of periapsis
51.8303°
True anomaly
Unknown
Mean anomaly
308.372°
Eccentric anomaly
Unknown
Mean motion
2.14974 °/min
Orbital period
167.46 mins
BSTAR
-0.012111
Loading maneuver chart data...
Loading SW <> Apogee altitude chart data...
Loading historical data...
Loading historical data...
Loading historical data...
Loading historical data...
Loading historical data...
Loading historical data...
Loading historical data...

SECOR 7 (EGRS 7) Visibility forecast

Observer location: undefined°, undefined°

Span
Click to sort rows by Start time (UTC) header in descending order
Start Az.
Max El. time (UTC)
Max El. Az.
Max El.
End time (UTC)
End Az.
26 mins2025-07-06 03:24:29.819Z103.159° ESE2025-07-06 03:37:29.819Z56.462° ENE23.669°2025-07-06 03:50:29.819Z10.444° NNE
36 mins2025-07-06 06:02:29.819Z174.531° S2025-07-06 06:20:29.819Z286.896° WNW44.96°2025-07-06 06:38:29.819Z357.786° N
24 mins2025-07-06 08:59:29.819Z254.898° W2025-07-06 09:10:29.819Z294.593° NW19.989°2025-07-06 09:23:29.819Z340.936° N
26 mins2025-07-06 15:14:29.819Z20.065° NNE2025-07-06 15:27:29.819Z67.602° E21.486°2025-07-06 15:40:29.819Z113.674° SE
36 mins2025-07-06 17:59:29.819Z1.781° NNE2025-07-06 18:17:29.819Z212.16° SW44.979°2025-07-06 18:35:29.819Z188.39° SSW
24 mins2025-07-06 20:48:29.819Z345.347° N2025-07-06 20:59:29.819Z305.602° NW22.4°2025-07-06 21:12:29.819Z259.715° W
|